Location: Northern Prairie Star Party
(53.2167°N, 112.5333°W)
Time: 16:27:25
(UTC-07:00)

MaSat-1 - Visible Passes

Search period start: 17 December 2014 00:00
Search period end: 27 December 2014 00:00
Orbit: 248 x 443 km, 69.4° (Epoch: 17 December)

Date Brightness Start Highest point End Pass type
(mag) Time Alt. Az. Time Alt. Az. Time Alt. Az.
17 Dec ? 17:54:12 10° N 17:54:18 11° N 17:54:18 11° N visible
18 Dec ? 18:17:39 10° NNW 18:18:26 18° NNW 18:18:26 18° NNW visible
19 Dec ? 17:07:35 10° N 17:09:05 15° NE 17:10:28 11° E visible
19 Dec ? 18:40:24 10° NW 18:41:56 26° W 18:41:56 26° W visible
20 Dec ? 17:28:35 10° NNW 17:30:47 37° NE 17:33:04 10° ESE visible
20 Dec ? 19:02:58 10° W 19:03:49 11° WSW 19:04:42 10° SW visible
21 Dec ? 17:48:52 10° NW 17:51:11 63° WSW 17:53:37 10° SSE visible
22 Dec ? 18:08:26 10° WNW 18:10:19 21° WSW 18:12:16 10° SSW visible
24 Dec ? 17:10:08 10° NW 17:12:26 47° WSW 17:14:49 10° SSE visible
25 Dec ? 17:26:24 10° WNW 17:28:10 18° WSW 17:30:00 10° SSW visible
